Lexington Weather

Lexington, Massachusetts, USA

43°F
9/19/2020 7:37am 
  • Lexington Conditions: Clear
  • Temperature: 43.0°F / 6.1°CColder 0.2°F than last hour.
  • Dew Point: 34.9°FDecreased 0.9°Fsince last hour.
  • Relative Humidity: 73%Decreased 2.0% since last hour.
  • Wind: Wind from NNE NNE 1 mph, 10-min avg: 1 mph, gust: 2 mph
  • Barometer: 30.23 inRising 0.03  inHg/hr Rising Slowly
  • Visibility: 10 miles
  • Rain Today: 0.00 in
  •   
Southeast Middlesex County - Special Weather Statement
 - SEE ALL NEARBY ALERTS -

Regional Weather Roundup
for Boston / Norton, MA

        
000
ASUS41 KBOX 151204
RWRBOX

REGIONAL WEATHER ROUNDUP
NATIONAL WEATHER SERVICE BOSTON/NORTON MA
800 AM EDT TUE SEP 15 2020

NOTE:  "FAIR" INDICATES FEW OR NO CLOUDS BELOW 12,000 FEET WITH NO 
SIGNIFICANT WEATHER AND/OR OBSTRUCTIONS TO VISIBILITY.

MAZALL-151300-
EASTERN MASSACHUSETTS
  
CITY           SKY/WX    TMP DP  RH WIND       PRES   REMARKS
BOSTON         MOSUNNY   51  39  63 NW8       30.34R                  
6HR MIN TEMP:  49; 6HR MAX TEMP:  53;                                

BEVERLY        SUNNY     48  42  80 NW8       30.33R                  
LAWRENCE       SUNNY     47  42  83 CALM      30.36R                  
BEDFORD        SUNNY     43  39  86 CALM      30.33R                  
BLUE HILL        N/A     46  40  79 N10       30.31R                  
NORWOOD        SUNNY     45  41  86 CALM      30.33R                  
MARSHFIELD     MOSUNNY   61  43  51 VRB7      30.31R                  
PLYMOUTH       MOSUNNY   51  44  77 NW9       30.30R                  
TAUNTON        SUNNY     50  42  74 CALM      30.32R                  
NEW BEDFORD    SUNNY     50  41  71 VRB6      30.30R                  
$$

MAZALL-151300-
CAPE COD AND THE ISLANDS
  
CITY           SKY/WX    TMP DP  RH WIND       PRES   REMARKS
FALMOUTH       NOT AVBL                                               
HYANNIS        PTSUNNY   59  44  57 NE10      30.27R                  
CHATHAM        PTSUNNY   59  44  57 NE8       30.29R                  
PROVINCETOWN   PTSUNNY   59  44  57 NE15      30.31R                  
NANTUCKET      PTSUNNY   60  44  55 NE16      30.26R                  
MARTHAS VNYRD  PTSUNNY   59  44  57 NE13G18   30.28R                  
$$
 
MAZALL-151300-
CENTRAL AND WESTERN MASSACHUSETTS
  
CITY           SKY/WX    TMP DP  RH WIND       PRES   REMARKS
WORCESTER      SUNNY     49  36  61 N6        30.33R                  
6HR MIN TEMP:  44; 6HR MAX TEMP:  49;                                

FITCHBURG      SUNNY     46  40  79 N5        30.35R                  
ORANGE         SUNNY     42  40  92 CALM      30.36R                  
SPRINGFIELD    MOSUNNY   44  42  92 CALM      30.34R                  
WESTFIELD      SUNNY     43  42  97 CALM      30.35R                  
NORTH ADAMS    SUNNY     40  38  93 CALM      30.38R                  
PITTSFIELD     SUNNY     41  38  89 CALM      30.34R                  
$$
 
RIZALL-151300-
RHODE ISLAND
  
CITY           SKY/WX    TMP DP  RH WIND       PRES   REMARKS
PROVIDENCE     PTSUNNY   51  40  65 N10       30.33R                  
6HR MIN TEMP:  49; 6HR MAX TEMP:  54;                                

NEWPORT        SUNNY     53  40  61 N8        30.31R                  
BLOCK ISLAND   SUNNY     54  44  69 N10G17    30.31R                  
SMITHFIELD     SUNNY     47  42  83 N5        30.33R                  
WESTERLY       SUNNY     50  39  66 N6        30.33R                  
$$
 
CTZALL-151300-
CONNECTICUT
  
CITY           SKY/WX    TMP DP  RH WIND       PRES   REMARKS
BRADLEY INTL   CLOUDY    46  39  76 N6        30.35R                  
6HR MIN TEMP:  44; 6HR MAX TEMP:  50;                                

HARTFORD       SUNNY     49  41  74 N5        30.35R                  
BRIDGEPORT     SUNNY     53  41  63 N14       30.33R                  
DANBURY        SUNNY     45  41  86 SW3       30.35S                  
GROTON         SUNNY     50  40  68 N10       30.32R                  
NEW HAVEN      SUNNY     52  42  69 N9        30.34R                  
CHESTER        NOT AVBL                                               
MERIDEN        SUNNY     47  42  83 CALM      30.35R                  
WILLIMANTIC    SUNNY     46  41  82 CALM      30.34R                  
OXFORD         SUNNY     46  40  79 N10       30.34S                  
$$

MEZ002-015-021-024-NHZ003-005-008-011-012-014-VTZ005-008-151300-
NORTHERN NEW ENGLAND
  
CITY           SKY/WX    TMP DP  RH WIND       PRES   REMARKS
PORTLAND ME    SUNNY     46  40  79 W6        30.34R                  
6HR MIN TEMP:  40; 6HR MAX TEMP:  50;                                

BANGOR ME      MOSUNNY   46  39  76 CALM      30.30R                  
CONCORD NH     SUNNY     40  37  89 CALM      30.35R                  
MANCHESTER NH  CLOUDY    48  39  71 CALM      30.33R                  
NASHUA NH      SUNNY     45  42  89 NW3       30.36R                  
PORTSMOUTH NH  MOSUNNY   46  40  80 NW5       30.33R                  
JAFFREY NH     SUNNY     40  36  86 CALM      30.35R                  
KEENE NH       SUNNY     38  37  97 CALM      30.37R                  
BURLINGTON VT  MOSUNNY   41  39  93 E3        30.37S FOG              
MT. WASHINGTON NOT AVBL                                               
$$

NYZ052-076-151300-
EASTERN NEW YORK
  
CITY           SKY/WX    TMP DP  RH WIND       PRES   REMARKS
ALBANY         PTSUNNY   42  41  96 CALM      30.39R                  
6HR MIN TEMP:  37; 6HR MAX TEMP:  44;                                

NEW YORK CITY  CLOUDY    56  40  55 NE12      30.34R                  
6HR MIN TEMP:  55; 6HR MAX TEMP:  60;                                

$$
 
ANZALL-151300-
MARINE OBSERVATIONS
  
STATION/POSITION TIME  TEMP    WIND        PRES    VSBY  WAVE
                       AIR SEA DIR/SP/G                  HT/PER
                 (UTC) (F)     (DEG/KT/KT) (MB)    (MI)  (FT/S)
BOSTON BUOY      1050   58 64   30/ 16/ 21 1024.4          5/ 6
BUZZARDS BAY     1100          360/ 18/ 20 1026.2R
NANTUCKET SOUND  1140      70   20/ 17/ 23   N/A
MASS BAY-STELLWA 1104   58      60/ 14/ 17 1023.7R  1 7/8  5/ 5
ISLE OF SHOALS   1100   54     360/ 12/ 14 1025.9R
S OF BLOCK IS    1126      70                N/A           7/14
$$

......................KEY.........................
  SKY/WX - SKY CONDITION/PRESENT WEATHER
  TMP    - TEMPERATURE IN FAHRENHEIT
  DWPT   - DEWPOINT IN FAHRENHEIT
  RH     - RELATIVE HUMIDITY IN PERCENT
  WIND   - DIRECTION AND SPEED IN MPH
  PRES   - MEAN SEA LEVEL PRESSURE IN INCHES OF HG
  WCI    - WIND CHILL INDEX
  VSB    - VISIBILITY IN MILES
  HX     - HEAT INDEX
  TC     - TEMPERATURE IN CELSIUS
  VRB    - VARIABLE WIND DIRECTION
  N/A    - NOT AVAILABLE
  
      

Other recent Regional Weather Roundups

Sat Sep 19, 7:04am

Sat Sep 19, 6:04am

Sat Sep 19, 5:04am

Sat Sep 19, 4:04am

Sat Sep 19, 3:04am

Sat Sep 19, 2:04am

Sat Sep 19, 1:04am

Sat Sep 19, 12:04am

Fri Sep 18, 11:05pm

Fri Sep 18, 10:04pm

Fri Sep 18, 9:04pm

Fri Sep 18, 8:04pm

Fri Sep 18, 7:04pm

Fri Sep 18, 6:04pm

Fri Sep 18, 5:05pm

Fri Sep 18, 4:04pm

Fri Sep 18, 3:05pm

Fri Sep 18, 2:04pm

Fri Sep 18, 1:04pm

Fri Sep 18, 12:04pm

Fri Sep 18, 11:05am

Fri Sep 18, 10:05am

Fri Sep 18, 9:04am

Fri Sep 18, 8:04am

Fri Sep 18, 7:04am

Fri Sep 18, 6:04am

Fri Sep 18, 5:04am

Fri Sep 18, 4:04am

Fri Sep 18, 3:04am

Fri Sep 18, 2:04am

Fri Sep 18, 1:04am

Fri Sep 18, 12:04am

Thu Sep 17, 11:05pm

Thu Sep 17, 10:04pm

Thu Sep 17, 9:04pm

Thu Sep 17, 8:05pm

Thu Sep 17, 7:04pm

Thu Sep 17, 6:04pm

Thu Sep 17, 5:04pm

Thu Sep 17, 4:04pm

Thu Sep 17, 3:05pm

Thu Sep 17, 2:04pm

Thu Sep 17, 1:04pm

Thu Sep 17, 12:04pm

Thu Sep 17, 11:04am

Thu Sep 17, 10:04am

Thu Sep 17, 9:04am

Thu Sep 17, 8:04am

Thu Sep 17, 7:04am

Thu Sep 17, 6:04am

Thu Sep 17, 5:04am

Thu Sep 17, 4:04am

Thu Sep 17, 3:04am

Thu Sep 17, 2:05am

Thu Sep 17, 1:05am

Thu Sep 17, 12:04am

Wed Sep 16, 11:04pm

Wed Sep 16, 10:04pm

Wed Sep 16, 9:04pm

Wed Sep 16, 8:05pm

Wed Sep 16, 7:04pm

Wed Sep 16, 6:04pm

Wed Sep 16, 5:04pm

Wed Sep 16, 4:04pm

Wed Sep 16, 3:04pm

Wed Sep 16, 2:04pm

Wed Sep 16, 1:04pm

Wed Sep 16, 12:04pm

Wed Sep 16, 11:04am

Wed Sep 16, 10:04am

Wed Sep 16, 9:04am

Wed Sep 16, 8:04am

Wed Sep 16, 7:04am

Wed Sep 16, 6:04am

Wed Sep 16, 5:04am

Wed Sep 16, 4:04am

Wed Sep 16, 3:04am

Wed Sep 16, 2:04am

Wed Sep 16, 1:04am

Wed Sep 16, 12:05am

Tue Sep 15, 11:04pm

Tue Sep 15, 10:04pm

Tue Sep 15, 9:04pm

Tue Sep 15, 8:04pm

Tue Sep 15, 7:04pm

Tue Sep 15, 6:04pm

Tue Sep 15, 5:04pm

Tue Sep 15, 4:05pm

Tue Sep 15, 3:04pm

Tue Sep 15, 2:04pm

Tue Sep 15, 1:04pm

Tue Sep 15, 12:04pm

Tue Sep 15, 11:04am

Tue Sep 15, 10:04am

Tue Sep 15, 9:04am

Tue Sep 15, 7:04am

Tue Sep 15, 6:04am

Tue Sep 15, 5:04am

Tue Sep 15, 4:04am

Tue Sep 15, 3:04am

Tue Sep 15, 2:04am

Tue Sep 15, 1:04am

Tue Sep 15, 12:05am

Mon Sep 14, 11:04pm

Mon Sep 14, 10:04pm

Mon Sep 14, 9:04pm

Mon Sep 14, 8:04pm

Mon Sep 14, 7:04pm

Mon Sep 14, 6:04pm

Mon Sep 14, 5:04pm

Mon Sep 14, 4:05pm

Mon Sep 14, 3:04pm

Mon Sep 14, 2:05pm

Mon Sep 14, 1:04pm

Mon Sep 14, 12:04pm

Mon Sep 14, 11:04am

Mon Sep 14, 10:05am

Mon Sep 14, 9:04am

Mon Sep 14, 8:04am

Mon Sep 14, 7:04am

Mon Sep 14, 6:04am

Mon Sep 14, 5:04am

Mon Sep 14, 4:04am

Mon Sep 14, 3:04am

Mon Sep 14, 2:04am

Mon Sep 14, 1:04am

Mon Sep 14, 12:04am

Sun Sep 13, 11:05pm

Sun Sep 13, 10:04pm

Sun Sep 13, 9:04pm

Sun Sep 13, 8:04pm

Sun Sep 13, 7:05pm

Sun Sep 13, 6:05pm

Sun Sep 13, 5:05pm

Sun Sep 13, 4:04pm

Sun Sep 13, 3:04pm

Sun Sep 13, 2:04pm

Sun Sep 13, 1:04pm

Sun Sep 13, 12:04pm

Sun Sep 13, 11:05am

Sun Sep 13, 10:04am

Sun Sep 13, 9:04am

Sun Sep 13, 8:04am

Sun Sep 13, 7:04am

Sun Sep 13, 6:04am

Sun Sep 13, 5:04am

Sun Sep 13, 4:04am

Sun Sep 13, 3:04am

Sun Sep 13, 2:04am

Sun Sep 13, 1:04am

Sun Sep 13, 12:04am

Sat Sep 12, 11:04pm

Sat Sep 12, 10:04pm

Sat Sep 12, 9:04pm

Sat Sep 12, 8:04pm

Sat Sep 12, 7:05pm

Sat Sep 12, 6:04pm

Sat Sep 12, 5:04pm

Sat Sep 12, 4:05pm

Sat Sep 12, 3:04pm

Sat Sep 12, 2:04pm

Sat Sep 12, 1:05pm

Sat Sep 12, 12:04pm

Sat Sep 12, 11:04am

Sat Sep 12, 10:04am

Sat Sep 12, 9:04am

Sat Sep 12, 8:04am

Meta data:

ID: 9b4584b4-16a8-4286-b320-0aab06f63b3f
Link: https://api.weather.gov/products/9b4584b4-16a8-4286-b320-0aab06f63b3f